Time,TemperatureF,DewpointF,PressureIn,WindDirection,WindDirectionDegrees,WindSpeedMPH,WindSpeedGustMPH,Humidity,HourlyPrecipIn,Conditions,Clouds,dailyrainin,SoftwareType,DateUTC
2013-01-30 00:04:00,53.0,51.0,-100.00,WNW,295,1.0,5.0,93,0.00,,,-99.99,,2013-01-30 05:04:00,
2013-01-30 00:12:00,52.0,51.0,-100.00,SW,235,1.0,4.0,94,0.00,,,-99.99,,2013-01-30 05:12:00,
2013-01-30 00:22:00,51.0,50.0,-100.00,WNW,285,1.0,5.0,96,0.00,,,-99.99,,2013-01-30 05:22:00,
2013-01-30 00:32:00,51.0,50.0,-100.00,WNW,285,1.0,5.0,96,0.00,,,-99.99,,2013-01-30 05:32:00,
2013-01-30 00:43:00,51.0,50.0,-100.00,WNW,290,0.0,5.0,96,0.00,,,-99.99,,2013-01-30 05:43:00,
2013-01-30 00:52:00,49.0,48.0,-100.00,SW,225,0.0,6.0,97,0.00,,,-99.99,,2013-01-30 05:52:00,
2013-01-30 01:02:00,49.0,48.0,-100.00,SW,225,0.0,6.0,97,0.00,,,-99.99,,2013-01-30 06:02:00,
2013-01-30 01:11:00,47.0,47.0,-100.00,South,190,0.0,2.0,99,0.00,,,-99.99,,2013-01-30 06:11:00,
2013-01-30 01:22:00,46.0,46.0,-100.00,South,190,0.0,0.0,99,0.00,,,-99.99,,2013-01-30 06:22:00,
2013-01-30 01:32:00,46.0,46.0,-100.00,South,190,0.0,0.0,99,0.00,,,-99.99,,2013-01-30 06:32:00,
2013-01-30 01:42:00,46.0,45.0,-100.00,SE,135,0.0,2.0,99,0.00,,,-99.99,,2013-01-30 06:42:00,
2013-01-30 01:52:00,46.0,45.0,-100.00,SE,135,0.0,2.0,99,0.00,,,-99.99,,2013-01-30 06:52:00,
2013-01-30 02:02:00,46.0,45.0,-100.00,SE,135,0.0,2.0,99,0.00,,,-99.99,,2013-01-30 07:02:00,
2013-01-30 02:11:00,47.0,47.0,-100.00,SSE,165,1.0,4.0,99,0.00,,,-99.99,,2013-01-30 07:11:00,
2013-01-30 02:21:00,50.0,49.0,-100.00,South,180,1.0,9.0,99,0.00,,,-99.99,,2013-01-30 07:21:00,
2013-01-30 02:32:00,50.0,49.0,-100.00,South,180,1.0,9.0,99,0.00,,,-99.99,,2013-01-30 07:32:00,
2013-01-30 02:42:00,47.0,47.0,-100.00,WSW,245,0.0,3.0,99,0.00,,,-99.99,,2013-01-30 07:42:00,
2013-01-30 02:52:00,48.0,48.0,-100.00,SW,230,0.0,1.0,99,0.00,,,-99.99,,2013-01-30 07:52:00,
2013-01-30 03:02:00,48.0,48.0,-100.00,SW,230,0.0,1.0,99,0.00,,,-99.99,,2013-01-30 08:02:00,
2013-01-30 03:11:00,48.0,48.0,-100.00,SW,230,0.0,1.0,99,0.00,,,-99.99,,2013-01-30 08:11:00,
2013-01-30 03:21:00,48.0,48.0,-100.00,SW,230,0.0,1.0,99,0.00,,,-99.99,,2013-01-30 08:21:00,
2013-01-30 03:32:00,49.0,49.0,-100.00,SSW,210,1.0,4.0,99,0.00,,,-99.99,,2013-01-30 08:32:00,
2013-01-30 03:42:00,50.0,49.0,-100.00,SSE,160,1.0,5.0,99,0.00,,,-99.99,,2013-01-30 08:42:00,
2013-01-30 03:52:00,50.0,50.0,-100.00,West,275,1.0,6.0,99,0.00,,,-99.99,,2013-01-30 08:52:00,
2013-01-30 04:02:00,50.0,50.0,-100.00,West,275,1.0,6.0,99,0.00,,,-99.99,,2013-01-30 09:02:00,
2013-01-30 04:11:00,50.0,50.0,-100.00,West,275,1.0,6.0,99,0.00,,,-99.99,,2013-01-30 09:11:00,
2013-01-30 04:22:00,50.0,49.0,-100.00,SW,235,0.0,4.0,99,0.00,,,-99.99,,2013-01-30 09:22:00,
2013-01-30 04:32:00,50.0,49.0,-100.00,SW,235,0.0,4.0,99,0.00,,,-99.99,,2013-01-30 09:32:00,
2013-01-30 04:42:00,49.0,49.0,-100.00,West,275,2.0,6.0,99,0.00,,,-99.99,,2013-01-30 09:42:00,
2013-01-30 04:52:00,49.0,48.0,-100.00,WNW,290,2.0,6.0,99,0.00,,,-99.99,,2013-01-30 09:52:00,
2013-01-30 05:01:00,49.0,48.0,-100.00,WNW,290,2.0,6.0,99,0.00,,,-99.99,,2013-01-30 10:01:00,
2013-01-30 05:12:00,47.0,47.0,-100.00,West,280,1.0,6.0,99,0.00,,,-99.99,,2013-01-30 10:12:00,
2013-01-30 05:21:00,47.0,47.0,-100.00,West,280,1.0,6.0,99,0.00,,,-99.99,,2013-01-30 10:21:00,
2013-01-30 05:32:00,47.0,47.0,-100.00,West,280,1.0,6.0,99,0.00,,,-99.99,,2013-01-30 10:32:00,
2013-01-30 05:42:00,48.0,48.0,-100.00,NW,320,1.0,7.0,99,0.00,,,-99.99,,2013-01-30 10:42:00,
2013-01-30 05:52:00,48.0,48.0,-100.00,NW,320,1.0,7.0,99,0.00,,,-99.99,,2013-01-30 10:52:00,
2013-01-30 06:02:00,49.0,48.0,-100.00,WNW,295,1.0,7.0,99,0.00,,,-99.99,,2013-01-30 11:02:00,
2013-01-30 06:11:00,50.0,49.0,-100.00,SSE,150,2.0,8.0,99,0.00,,,-99.99,,2013-01-30 11:11:00,
2013-01-30 06:22:00,53.0,53.0,-100.00,South,185,2.0,9.0,99,0.00,,,-99.99,,2013-01-30 11:22:00,
2013-01-30 06:33:00,53.0,53.0,-100.00,South,185,2.0,9.0,99,0.00,,,-99.99,,2013-01-30 11:33:00,
2013-01-30 06:42:00,54.0,54.0,-100.00,SSW,200,2.0,11.0,99,0.00,,,-99.99,,2013-01-30 11:42:00,
2013-01-30 06:52:00,55.0,55.0,-100.00,South,175,2.0,9.0,99,0.00,,,-99.99,,2013-01-30 11:52:00,
2013-01-30 07:02:00,55.0,55.0,-100.00,South,175,2.0,9.0,99,0.00,,,-99.99,,2013-01-30 12:02:00,
2013-01-30 07:12:00,56.0,56.0,-100.00,SE,135,3.0,9.0,99,0.00,,,-99.99,,2013-01-30 12:12:00,
2013-01-30 07:22:00,57.0,57.0,-100.00,South,170,3.0,12.0,99,0.00,,,-99.99,,2013-01-30 12:22:00,
2013-01-30 07:33:00,57.0,57.0,-100.00,South,170,3.0,12.0,99,0.00,,,-99.99,,2013-01-30 12:33:00,
2013-01-30 07:43:00,57.0,57.0,-100.00,South,170,3.0,12.0,99,0.00,,,-99.99,,2013-01-30 12:43:00,
2013-01-30 08:03:00,57.0,57.0,-100.00,South,185,1.0,9.0,99,0.00,,,-99.99,,2013-01-30 13:03:00,
2013-01-30 08:12:00,58.0,58.0,-100.00,SE,140,4.0,12.0,99,0.00,,,-99.99,,2013-01-30 13:12:00,
2013-01-30 08:23:00,59.0,59.0,-100.00,SE,145,4.0,11.0,99,0.00,,,-99.99,,2013-01-30 13:23:00,
2013-01-30 08:33:00,59.0,59.0,-100.00,SE,145,4.0,11.0,99,0.00,,,-99.99,,2013-01-30 13:33:00,
2013-01-30 08:43:00,59.0,59.0,-100.00,SE,145,4.0,11.0,99,0.00,,,-99.99,,2013-01-30 13:43:00,
2013-01-30 08:52:00,60.0,59.0,-100.00,SW,230,1.0,11.0,99,0.00,,,-99.99,,2013-01-30 13:52:00,
2013-01-30 09:03:00,60.0,59.0,-100.00,SW,230,1.0,11.0,99,0.00,,,-99.99,,2013-01-30 14:03:00,
2013-01-30 09:12:00,61.0,60.0,-100.00,SSW,210,2.0,7.0,98,0.00,,,-99.99,,2013-01-30 14:12:00,
2013-01-30 09:23:00,63.0,61.0,-100.00,SW,235,6.0,18.0,94,0.00,,,-99.99,,2013-01-30 14:23:00,
2013-01-30 09:33:00,63.0,61.0,-100.00,SW,235,6.0,18.0,94,0.00,,,-99.99,,2013-01-30 14:33:00,
2013-01-30 09:42:00,63.0,60.0,-100.00,WSW,240,2.0,10.0,91,0.00,,,-99.99,,2013-01-30 14:42:00,
2013-01-30 09:52:00,64.0,61.0,-100.00,SSW,210,6.0,21.0,89,0.00,,,-99.99,,2013-01-30 14:52:00,
2013-01-30 10:03:00,64.0,61.0,-100.00,SSW,210,6.0,21.0,89,0.00,,,-99.99,,2013-01-30 15:03:00,
2013-01-30 10:12:00,65.0,61.0,-100.00,SSW,210,4.0,24.0,87,0.00,,,-99.99,,2013-01-30 15:12:00,
2013-01-30 10:23:00,65.0,61.0,-100.00,SW,235,6.0,16.0,86,0.00,,,-99.99,,2013-01-30 15:23:00,
2013-01-30 10:33:00,65.0,61.0,-100.00,SW,235,6.0,16.0,86,0.00,,,-99.99,,2013-01-30 15:33:00,
2013-01-30 10:43:00,65.0,61.0,-100.00,South,190,6.0,21.0,86,0.00,,,-99.99,,2013-01-30 15:43:00,
2013-01-30 10:53:00,65.0,61.0,-100.00,South,190,6.0,21.0,86,0.00,,,-99.99,,2013-01-30 15:53:00,
2013-01-30 11:03:00,65.0,61.0,-100.00,South,190,6.0,21.0,86,0.00,,,-99.99,,2013-01-30 16:03:00,
2013-01-30 11:12:00,65.0,61.0,-100.00,SW,235,7.0,19.0,86,0.00,,,-99.99,,2013-01-30 16:12:00,
2013-01-30 11:23:00,65.0,61.0,-100.00,SSW,205,5.0,14.0,86,0.00,,,-99.99,,2013-01-30 16:23:00,
2013-01-30 11:32:00,65.0,61.0,-100.00,SSW,205,5.0,14.0,86,0.00,,,-99.99,,2013-01-30 16:32:00,
2013-01-30 11:42:00,65.0,61.0,-100.00,South,190,4.0,11.0,86,0.00,,,-99.99,,2013-01-30 16:42:00,
2013-01-30 11:52:00,66.0,61.0,-100.00,SSW,205,5.0,16.0,84,0.00,,,-99.99,,2013-01-30 16:52:00,
2013-01-30 12:02:00,66.0,61.0,-100.00,SSW,205,5.0,16.0,84,0.00,,,-99.99,,2013-01-30 17:02:00,
2013-01-30 12:13:00,66.0,61.0,-100.00,SSW,205,5.0,16.0,84,0.00,,,-99.99,,2013-01-30 17:13:00,
2013-01-30 12:23:00,67.0,62.0,-100.00,SW,235,7.0,16.0,84,0.00,,,-99.99,,2013-01-30 17:23:00,
2013-01-30 12:33:00,67.0,62.0,-100.00,SW,235,7.0,16.0,84,0.00,,,-99.99,,2013-01-30 17:33:00,
2013-01-30 12:43:00,67.0,61.0,-100.00,SSW,210,5.0,18.0,83,0.00,,,-99.99,,2013-01-30 17:43:00,
2013-01-30 12:53:00,67.0,61.0,-100.00,SSW,210,5.0,18.0,83,0.00,,,-99.99,,2013-01-30 17:53:00,
2013-01-30 13:03:00,67.0,62.0,-100.00,South,175,6.0,16.0,83,0.00,,,-99.99,,2013-01-30 18:03:00,
2013-01-30 13:13:00,67.0,61.0,-100.00,SSE,155,4.0,17.0,82,0.00,,,-99.99,,2013-01-30 18:13:00,
2013-01-30 13:23:00,67.0,61.0,-100.00,SSE,155,4.0,17.0,82,0.00,,,-99.99,,2013-01-30 18:23:00,
2013-01-30 13:33:00,67.0,61.0,-100.00,SSE,155,4.0,17.0,82,0.00,,,-99.99,,2013-01-30 18:33:00,
2013-01-30 13:43:00,68.0,62.0,-100.00,ESE,120,4.0,22.0,80,0.00,,,-99.99,,2013-01-30 18:43:00,
2013-01-30 13:52:00,68.0,62.0,-100.00,ESE,120,4.0,22.0,80,0.00,,,-99.99,,2013-01-30 18:52:00,
2013-01-30 14:03:00,68.0,62.0,-100.00,SW,225,7.0,21.0,79,0.00,,,-99.99,,2013-01-30 19:03:00,
2013-01-30 14:13:00,69.0,62.0,-100.00,SSW,195,7.0,22.0,77,0.00,,,-99.99,,2013-01-30 19:13:00,
2013-01-30 14:22:00,70.0,62.0,-100.00,SW,235,6.0,18.0,75,0.00,,,-99.99,,2013-01-30 19:22:00,
2013-01-30 14:33:00,70.0,62.0,-100.00,SW,235,6.0,18.0,75,0.00,,,-99.99,,2013-01-30 19:33:00,
2013-01-30 14:43:00,70.0,62.0,-100.00,SW,235,6.0,18.0,75,0.00,,,-99.99,,2013-01-30 19:43:00,
2013-01-30 14:53:00,59.0,58.0,-100.00,WNW,290,7.0,32.0,98,0.95,,,-99.99,,2013-01-30 19:53:00,
2013-01-30 15:03:00,59.0,58.0,-100.00,WNW,290,7.0,32.0,98,0.95,,,-99.99,,2013-01-30 20:03:00,
2013-01-30 15:12:00,58.0,58.0,-100.00,SW,225,1.0,4.0,99,0.01,,,-99.99,,2013-01-30 20:12:00,
2013-01-30 15:22:00,58.0,58.0,-100.00,SSW,195,1.0,5.0,99,0.04,,,-99.99,,2013-01-30 20:22:00,
2013-01-30 15:33:00,58.0,58.0,-100.00,SSW,195,1.0,5.0,99,0.04,,,-99.99,,2013-01-30 20:33:00,
2013-01-30 15:42:00,58.0,58.0,-100.00,SSW,195,1.0,5.0,99,0.04,,,-99.99,,2013-01-30 20:42:00,
2013-01-30 15:52:00,58.0,58.0,-100.00,South,180,2.0,7.0,99,0.03,,,-99.99,,2013-01-30 20:52:00,
2013-01-30 16:03:00,58.0,58.0,-100.00,South,180,2.0,7.0,99,0.03,,,-99.99,,2013-01-30 21:03:00,
2013-01-30 16:12:00,58.0,58.0,-100.00,South,180,2.0,7.0,99,0.03,,,-99.99,,2013-01-30 21:12:00,
2013-01-30 16:23:00,58.0,58.0,-100.00,SE,145,3.0,7.0,99,0.03,,,-99.99,,2013-01-30 21:23:00,
2013-01-30 16:32:00,58.0,58.0,-100.00,SE,145,3.0,7.0,99,0.03,,,-99.99,,2013-01-30 21:32:00,
2013-01-30 16:42:00,58.0,58.0,-100.00,SSE,150,3.0,6.0,99,0.00,,,-99.99,,2013-01-30 21:42:00,
2013-01-30 16:53:00,58.0,57.0,-100.00,SE,130,4.0,7.0,99,0.10,,,-99.99,,2013-01-30 21:53:00,
2013-01-30 17:03:00,58.0,57.0,-100.00,SE,130,4.0,7.0,99,0.10,,,-99.99,,2013-01-30 22:03:00,
2013-01-30 17:12:00,58.0,57.0,-100.00,South,175,2.0,9.0,99,0.06,,,-99.99,,2013-01-30 22:12:00,
2013-01-30 17:22:00,57.0,57.0,-100.00,SE,145,4.0,6.0,99,0.24,,,-99.99,,2013-01-30 22:22:00,
2013-01-30 17:32:00,57.0,57.0,-100.00,SE,145,4.0,6.0,99,0.24,,,-99.99,,2013-01-30 22:32:00,
2013-01-30 17:42:00,57.0,57.0,-100.00,SSE,165,1.0,6.0,99,0.52,,,-99.99,,2013-01-30 22:42:00,
2013-01-30 17:52:00,57.0,57.0,-100.00,SSE,165,1.0,6.0,99,0.52,,,-99.99,,2013-01-30 22:52:00,
2013-01-30 18:02:00,57.0,57.0,-100.00,SE,135,1.0,7.0,99,0.20,,,-99.99,,2013-01-30 23:02:00,
2013-01-30 18:12:00,57.0,57.0,-100.00,SW,225,1.0,8.0,99,0.11,,,-99.99,,2013-01-30 23:12:00,
2013-01-30 18:22:00,57.0,57.0,-100.00,North,0,1.0,5.0,99,0.41,,,-99.99,,2013-01-30 23:22:00,
2013-01-30 18:33:00,57.0,57.0,-100.00,North,0,1.0,5.0,99,0.41,,,-99.99,,2013-01-30 23:33:00,
2013-01-30 18:42:00,56.0,56.0,-100.00,ESE,115,1.0,6.0,99,0.40,,,-99.99,,2013-01-30 23:42:00,
2013-01-30 18:52:00,57.0,56.0,-100.00,NW,325,0.0,4.0,99,0.62,,,-99.99,,2013-01-30 23:52:00,
2013-01-30 19:02:00,57.0,56.0,-100.00,NW,325,0.0,4.0,99,0.62,,,-99.99,,2013-01-31 00:02:00,
2013-01-30 19:11:00,57.0,56.0,-100.00,NW,325,0.0,4.0,99,0.62,,,-99.99,,2013-01-31 00:11:00,
2013-01-30 19:22:00,56.0,56.0,-100.00,ENE,75,1.0,7.0,99,0.14,,,-99.99,,2013-01-31 00:22:00,
2013-01-30 19:32:00,56.0,56.0,-100.00,ENE,75,1.0,7.0,99,0.14,,,-99.99,,2013-01-31 00:32:00,
2013-01-30 19:42:00,56.0,56.0,-100.00,East,95,6.0,9.0,99,0.06,,,-99.99,,2013-01-31 00:42:00,
2013-01-30 19:52:00,56.0,56.0,-100.00,SSE,155,4.0,10.0,99,0.06,,,-99.99,,2013-01-31 00:52:00,
2013-01-30 20:02:00,56.0,56.0,-100.00,SSE,155,4.0,10.0,99,0.06,,,-99.99,,2013-01-31 01:02:00,
2013-01-30 20:12:00,56.0,56.0,-100.00,East,100,7.0,9.0,99,0.13,,,-99.99,,2013-01-31 01:12:00,
2013-01-30 20:22:00,56.0,56.0,-100.00,East,85,1.0,6.0,99,0.06,,,-99.99,,2013-01-31 01:22:00,
2013-01-30 20:32:00,56.0,56.0,-100.00,East,85,1.0,6.0,99,0.06,,,-99.99,,2013-01-31 01:32:00,
2013-01-30 20:42:00,56.0,56.0,-100.00,ESE,105,3.0,9.0,99,0.06,,,-99.99,,2013-01-31 01:42:00,
2013-01-30 20:53:00,56.0,55.0,-100.00,SSE,155,0.0,6.0,99,0.11,,,-99.99,,2013-01-31 01:53:00,
2013-01-30 21:01:00,56.0,55.0,-100.00,SSE,155,0.0,6.0,99,0.11,,,-99.99,,2013-01-31 02:01:00,
2013-01-30 21:12:00,56.0,55.0,-100.00,SE,140,1.0,5.0,99,0.04,,,-99.99,,2013-01-31 02:12:00,
2013-01-30 21:22:00,56.0,55.0,-100.00,East,85,1.0,6.0,99,0.00,,,-99.99,,2013-01-31 02:22:00,
2013-01-30 21:32:00,56.0,55.0,-100.00,East,85,1.0,6.0,99,0.00,,,-99.99,,2013-01-31 02:32:00,
2013-01-30 21:42:00,56.0,55.0,-100.00,East,85,1.0,6.0,99,0.00,,,-99.99,,2013-01-31 02:42:00,
2013-01-30 21:52:00,56.0,55.0,-100.00,East,85,1.0,6.0,99,0.00,,,-99.99,,2013-01-31 02:52:00,
2013-01-30 22:03:00,55.0,55.0,-100.00,SSW,200,0.0,3.0,99,0.14,,,-99.99,,2013-01-31 03:03:00,
2013-01-30 22:11:00,55.0,55.0,-100.00,WSW,245,0.0,6.0,99,0.07,,,-99.99,,2013-01-31 03:11:00,
2013-01-30 22:21:00,55.0,55.0,-100.00,WSW,245,0.0,6.0,99,0.07,,,-99.99,,2013-01-31 03:21:00,
2013-01-30 22:32:00,55.0,55.0,-100.00,WSW,245,0.0,6.0,99,0.07,,,-99.99,,2013-01-31 03:32:00,
2013-01-30 22:42:00,55.0,55.0,-100.00,ENE,60,0.0,2.0,99,0.10,,,-99.99,,2013-01-31 03:42:00,
2013-01-30 22:51:00,55.0,55.0,-100.00,SE,145,0.0,4.0,99,0.11,,,-99.99,,2013-01-31 03:51:00,
2013-01-30 23:02:00,55.0,55.0,-100.00,SE,145,0.0,4.0,99,0.11,,,-99.99,,2013-01-31 04:02:00,
2013-01-30 23:11:00,55.0,55.0,-100.00,ENE,70,2.0,6.0,99,0.24,,,-99.99,,2013-01-31 04:11:00,
2013-01-30 23:22:00,55.0,55.0,-100.00,ENE,70,2.0,6.0,99,0.24,,,-99.99,,2013-01-31 04:22:00,
2013-01-30 23:32:00,55.0,55.0,-100.00,East,95,0.0,4.0,99,0.17,,,-99.99,,2013-01-31 04:32:00,
2013-01-30 23:42:00,55.0,55.0,-100.00,SE,140,0.0,6.0,99,0.11,,,-99.99,,2013-01-31 04:42:00,
2013-01-30 23:51:00,55.0,55.0,-100.00,East,85,0.0,3.0,99,0.30,,,-99.99,,2013-01-31 04:51:00,